Location: NovaLab Observatory
(42.8167°N, 71.2500°W)
Time: 01:02:56
(UTC-04:00)

Daily predictions for brighter satellites

Satellite Brightness Start Highest point End
(mag) Time Altitude Azimuth Time Altitude Azimuth Time Altitude Azimuth
ARGOS Delta rocket 4.1 00:01:22 10° NNE 00:06:36 67° E 00:06:42 67° ESE
Cosmos 1953 Rocket 3.8 00:07:55 66° NNE 00:07:55 66° NNE 00:11:51 10° N
SME Rocket 3.7 00:07:12 63° SW 00:07:40 66° WSW 00:12:11 10° NNW
Cosmos 1825 Rocket 3.9 00:12:07 59° NW 00:12:07 59° NW 00:15:57 10° N
Cosmos 1805 4.5 00:08:34 10° NNW 00:11:23 37° NW 00:11:23 37° NW
USA 267 3.6 00:06:37 10° NE 00:13:05 65° NW 00:19:32 10° WSW
Cosmos 1707 4.3 00:15:16 30° NE 00:15:16 30° NE 00:17:35 10° NNE
USA 32 4.5 00:16:51 49° E 00:16:53 49° E 00:21:56 10° NNE
NOSS 3-1 (C) 4.4 00:13:46 10° NNW 00:21:10 59° NE 00:25:53 27° ESE
CZ-2C R/B 3.0 00:22:49 75° SW 00:23:04 77° WSW 00:28:40 10° NNW
Cosmos 2082 Rocket 3.8 00:24:51 17° WSW 00:28:13 29° NW 00:33:09 10° N
SeaSat 1 3.0 00:29:44 48° W 00:29:44 48° W 00:34:01 10° NW
Cosmos 972 Rocket 3.8 00:29:22 10° NNW 00:34:39 86° WNW 00:34:39 86° WNW
Cosmos 1953 3.8 00:32:07 10° NNW 00:34:56 32° WNW 00:34:56 32° WNW
CZ-4B R/B 3.7 00:37:24 20° NNE 00:37:24 20° NNE 00:38:47 10° N
Geosat 3.9 00:35:18 10° NNE 00:40:12 79° E 00:40:12 79° E
Cosmos 1934 Rocket 4.0 00:34:03 10° NNW 00:40:24 69° W 00:41:19 61° SW
CZ-2C R/B 3.0 00:38:35 10° N 00:44:06 58° WNW 00:44:57 52° WSW
USA 229 DEB 3.8 00:37:52 10° NW 00:44:52 58° WSW 00:45:48 54° SSW
USA 229 3.8 00:37:58 10° NW 00:44:58 59° WSW 00:45:55 55° SSW
USA 234 3.1 00:45:40 48° SE 00:47:46 88° SW 00:54:21 10° NW
Meteor 2-5 Rocket 3.7 00:47:56 72° SSE 00:48:32 81° E 00:54:31 10° NNE
NOSS 3-1 (A) 4.3 00:44:13 10° NNW 00:51:45 67° NE 00:56:43 26° SE
ATLAS CENTAUR R/B 2.6 00:49:09 10° NNW 00:51:45 35° N 00:51:45 35° N
SL-16 R/B 2.0 00:48:02 10° NNW 00:53:45 90° WSW 00:54:09 78° SSE
Cosmos 1697 Rocket 4.5 00:50:33 10° WNW 00:53:56 18° W 00:53:56 18° W
Meteor 2-15 Rocket 4.4 00:54:54 60° SE 00:55:42 66° E 01:01:44 10° NNE
Cosmos-2242 3.9 00:53:12 10° NNW 00:56:30 42° NW 00:56:30 42° NW
Cosmos 494 Rocket 3.9 00:57:25 74° W 00:57:30 74° WNW 01:02:41 10° NNE
H-2A R/B 3.6 00:57:17 10° NNE 01:00:29 37° ENE 01:00:29 37° ENE
Lacrosse 5 rocket 2.9 01:00:06 10° NW 01:04:27 38° NNE 01:06:52 22° E
Cosmos 2322 4.5 01:08:23 10° NNW 01:13:51 47° ENE 01:16:00 32° ESE
Lacrosse 5 2.2 01:18:10 52° E 01:18:10 52° E 01:22:27 10° NE
Cosmos 1833 4.3 01:17:48 56° ESE 01:18:06 56° ESE 01:23:38 10° NNE
Cosmos 2221 3.2 01:14:32 10° N 01:18:30 46° ENE 01:18:30 46° ENE
Cosmos 1727 Rocket 4.0 01:17:49 57° SW 01:18:51 67° W 01:25:04 10° N
Cosmos 2098 Rocket 4.0 01:15:42 10° NNW 01:19:03 41° WNW 01:19:03 41° WNW
Cosmos 1842 Rocket 4.0 01:17:26 10° NNW 01:21:16 57° NW 01:21:16 57° NW
Helios 1A Rocket 4.5 01:20:24 10° NE 01:23:38 28° E 01:23:38 28° E
Cosmos 1302 Rocket 4.1 01:20:16 10° NNW 01:25:14 60° W 01:25:14 60° W
In-Cosmos 22 4.0 01:25:11 67° SE 01:25:37 70° E 01:31:04 10° NNE
COSMOS 2428 4.1 01:20:35 10° N 01:25:47 34° NE 01:30:03 14° ESE
ISS -0.8 01:27:11 10° NW 01:29:29 17° N 01:31:46 10° NE
Cosmos 2219 4.5 01:28:53 26° ESE 01:29:36 27° ESE 01:34:15 10° NE
Cosmos 2251 Rocket 4.2 01:29:18 40° W 01:30:10 44° WNW 01:35:19 10° N
Cosmos 2084 Rocket 4.4 01:33:07 38° ENE 01:33:07 38° ENE 01:35:50 10° NE
Meteor 2-17 Rocket 4.4 01:26:53 10° N 01:33:00 79° E 01:34:24 55° SSE
Landsat 5 4.3 01:34:54 45° WNW 01:34:54 45° WNW 01:38:36 10° NNW
BREEZE-M DEB (TANK) 4.3 01:35:05 17° WNW 01:37:51 49° N 01:50:26 10° ENE
Cosmos 2360 Rocket 2.1 01:34:28 10° NNW 01:40:11 87° ENE 01:41:16 60° SSE
Cosmos 1980 Rocket 4.3 01:38:09 10° WNW 01:39:36 12° W 01:39:36 12° W
Cosmos 1992 Rocket 4.3 01:36:50 10° NNW 01:42:02 63° ENE 01:43:18 48° ESE
Cosmos 1000 Rocket 4.4 01:42:53 57° S 01:44:17 89° WNW 01:50:40 10° N
Meteor 1-24 Rocket 4.1 01:44:07 50° WSW 01:45:12 57° WNW 01:51:10 10° N
Cosmos 1076 Rocket 3.7 01:47:53 64° E 01:47:53 64° E 01:52:03 10° NNE
Cosmos 2322 Rocket 3.2 01:43:56 10° NW 01:48:25 31° W 01:48:25 31° W
Cosmos 1242 Rocket 4.3 01:46:43 10° NNE 01:49:43 25° ENE 01:49:55 25° E
Cosmos 1908 3.7 01:46:05 10° N 01:49:36 60° NE 01:49:36 60° NE
Cosmos 2173 Rocket 3.9 01:45:08 10° NNW 01:51:14 71° W 01:52:26 56° SSW
PSLV R/B 4.4 01:51:32 50° E 01:51:47 51° ENE 01:55:44 10° N
Okean 3 Rocket 3.6 01:57:49 68° WNW 01:57:49 68° WNW 02:02:20 10° N
Cosmos 1356 Rocket 4.2 01:59:01 39° E 01:59:03 39° E 02:02:50 10° NNE
Cosmos 2333 Rocket 3.9 01:54:12 10° N 01:59:14 30° NE 02:04:12 10° ESE
PSLV R/B 3.4 01:56:07 10° N 02:00:18 79° NW 02:00:18 79° NW
Resurs 1-4 Rocket 4.2 01:59:09 10° NE 02:02:45 18° E 02:05:36 13° SE
CZ-2D R/B 4.1 02:03:05 10° NE 02:06:44 19° E 02:09:32 13° SE
SL-16 R/B 3.8 02:08:08 10° SE 02:13:41 37° ENE 02:19:16 10° N
Cosmos 1184 Rocket 4.0 02:17:44 37° NNW 02:17:44 37° NNW 02:20:04 10° N
Cosmos 1802 Rocket 4.3 02:12:11 10° NNW 02:18:16 51° W 02:19:43 43° SW
Cosmos 2297 Rocket 4.2 02:17:08 12° SE 02:20:05 18° E 02:23:46 10° ENE
Cosmos 1864 Rocket 4.4 02:15:19 10° N 02:21:36 83° W 02:24:01 41° S
SL-8 R/B 4.3 02:21:51 39° SE 02:21:51 39° SE 02:26:11 10° ENE
Cosmos 1408 Rocket 3.4 02:26:02 67° WSW 02:26:25 72° W 02:30:47 10° N
Cosmos 2219 Rocket 2.8 02:21:07 10° NNW 02:26:44 57° ENE 02:32:19 10° SE
Meteor 1-21 Rocket 4.4 02:25:17 46° SW 02:27:00 68° WNW 02:32:54 10° N
Cosmos 1766 Rocket 3.5 02:29:18 60° WSW 02:29:42 64° W 02:34:04 10° N
Cosmos 1340 Rocket 3.7 02:30:29 35° WNW 02:30:29 35° WNW 02:33:59 10° N
Cosmos 1500 Rocket 4.4 02:30:15 33° SE 02:31:37 44° E 02:35:50 10° NNE
Meteor 2-2 Rocket 4.2 02:27:38 10° N 02:33:19 83° E 02:35:57 33° SSE
ERBS 4.2 02:34:06 21° ESE 02:34:06 21° ESE 02:36:12 10° ENE
Cosmos 2016 Rocket 4.4 02:28:38 10° NNW 02:34:40 46° W 02:36:28 37° SW
H-2A R/B 4.3 02:33:35 10° NNW 02:36:32 19° WNW 02:37:06 19° WNW
SL-16 R/B 4.3 02:34:49 10° WNW 02:36:00 12° W 02:36:00 12° W
Cosmos 1674 3.7 02:37:48 34° WNW 02:37:48 34° WNW 02:41:15 10° N
Cosmos 2237 Rocket 3.4 02:33:30 10° NNW 02:38:50 41° ENE 02:44:08 10° SE
Cosmos 1328 3.8 02:39:22 59° SSE 02:39:58 73° E 02:43:57 10° NNE
Cosmos 1626 4.1 02:40:34 18° SE 02:42:10 24° E 02:45:13 10° NE
Cosmos 1140 Rocket 4.4 02:40:45 26° SSE 02:43:07 41° ESE 02:48:00 10° NE
ATLAS 2AS CENTAUR R/B 3.1 02:35:07 10° NW 02:43:13 80° NE 02:50:42 10° SE
GPS 2-04 Rocket1 4.4 02:45:14 21° SE 02:45:14 21° SE 02:47:18 10° ESE
Lacrosse 5 rocket 2.5 02:39:26 10° WNW 02:42:28 32° W 02:42:28 32° W
IRS-P3 4.1 02:43:36 10° N 02:48:55 74° WNW 02:50:55 39° SSW
Cosmos 1515 Rocket 3.5 02:45:25 10° N 02:49:53 84° E 02:51:31 38° SSE
CBERS-1 3.9 02:45:43 10° NNE 02:50:51 83° WNW 02:52:47 40° SSW
NOSS 3-3 (A) 4.2 02:48:07 33° S 02:50:52 61° ESE 02:57:24 10° NE
NOSS 3-3 (C) 4.2 02:48:12 33° S 02:50:58 61° ESE 02:57:29 10° NE
Cosmos 1743 Rocket 3.5 02:50:22 49° SSW 02:51:33 81° W 02:56:02 10° N
Cosmos 1300 2.6 02:48:04 10° NNW 02:51:55 73° W 02:52:24 62° SSW
NPP 3.7 02:51:13 10° N 02:56:35 69° WNW 02:58:49 36° SW
Cosmos 2227 Rocket 2.9 02:53:35 25° SSE 02:56:35 47° ESE 03:01:59 10° NE
Helios 1A Rocket 4.3 02:55:43 10° NNW 02:59:09 25° WNW 02:59:57 24° W
Lacrosse 5 3.2 02:57:20 16° W 03:00:42 33° NNW 03:05:18 10° NE
ARIANE 5 R/B 3.0 02:55:41 10° NNE 03:00:43 54° E 03:03:43 23° S
ADEOS Rocket 3.6 02:54:29 10° NNE 03:01:49 76° ESE 03:07:21 21° S
Cosmos 1954 Rocket 4.0 03:00:23 33° S 03:02:50 77° ESE 03:08:06 10° NNE
NOSS 2-1 (E) 4.4 03:04:37 27° SSE 03:05:53 34° ESE 03:09:42 10° NE
Cosmos 407 Rocket 3.7 03:04:00 34° SW 03:06:03 56° WNW 03:11:08 10° NNE
ISS -1.6 03:03:51 10° NW 03:06:45 27° NNE 03:09:37 10° E
Meteor 1-27 4.3 03:02:20 10° N 03:08:09 83° E 03:13:10 14° SSE
Meteor 1-11 4.2 03:06:11 27° S 03:09:27 84° E 03:15:13 10° NNE
Cosmos 1726 3.0 03:06:38 10° NNW 03:10:03 32° W 03:10:06 32° W
COSMOS 2428 3.2 03:04:48 10° NW 03:10:05 39° WSW 03:12:00 30° SW
Cosmos 2228 Rocket 3.6 03:07:34 10° NNW 03:11:49 43° W 03:12:58 35° SW
Cosmos 2219 3.8 03:10:48 27° WSW 03:13:29 45° WNW 03:18:52 10° NNE
Cosmos 2058 2.8 03:14:39 34° S 03:16:22 88° W 03:20:31 10° N
Cosmos 676 Rocket 4.1 03:14:54 30° SW 03:17:28 65° WNW 03:22:45 10° NNE
Cosmos 2233 Rocket 4.3 03:12:13 10° NNW 03:18:15 48° W 03:21:41 25° SSW
ERS-1 4.5 03:13:23 10° NNE 03:18:31 85° WNW 03:21:30 26° SSW
Cosmos 1072 Rocket 4.4 03:15:56 10° N 03:22:05 89° E 03:28:10 10° S
Cosmos 2360 Rocket 4.0 03:20:54 10° WNW 03:23:00 13° W 03:23:00 13° W
Cosmos 2082 3.9 03:20:13 22° S 03:23:50 67° ESE 03:29:25 10° NNE
Cosmos 1242 Rocket 4.3 03:22:06 10° NW 03:24:02 17° W 03:24:02 17° W
Spot 4 Rocket 4.0 03:22:43 10° N 03:27:52 71° WNW 03:30:59 24° SSW
SL-08 R/B 4.4 03:31:18 24° WSW 03:32:45 28° W 03:37:00 10° NW
Cosmos 2208 Rocket 4.4 03:28:09 10° NNW 03:33:20 64° ENE 03:38:30 10° SSE
Cosmos 1455 2.3 03:32:00 10° N 03:35:52 80° E 03:39:30 12° S
Cosmos 1703 3.3 03:35:50 27° SSW 03:37:49 64° W 03:41:43 10° N
USA 102 4.5 03:37:09 10° N 03:37:43 19° NNW 03:37:43 19° NNW
CZ-2D R/B 3.9 03:35:02 10° NNE 03:38:59 56° E 03:42:27 13° S
Lacrosse 4 Rocket 3.8 03:38:06 10° SE 03:40:44 17° ESE 03:43:24 10° ENE
MOZ.5/SAFIR/RUBIN 5/SL-8 3.9 03:38:08 10° SSE 03:42:52 81° ENE 03:47:40 10° N
Resurs 1-4 Rocket 2.3 03:37:45 10° N 03:42:58 59° WNW 03:46:41 19° SW
Cosmos 2333 Rocket 2.6 03:38:15 10° NW 03:43:38 44° WSW 03:48:58 10° S
Cosmos 1151 Rocket 3.9 03:40:11 10° NNW 03:44:03 32° W 03:45:58 22° SW
IRS-1D 3.8 03:39:20 10° N 03:44:35 57° WNW 03:48:19 19° SW
Cosmos 1464 Rocket 4.0 03:38:35 10° NNW 03:44:43 67° W 03:50:46 10° S
Cosmos 2151 3.8 03:43:27 23° SW 03:45:23 34° WNW 03:49:16 10° N
CZ-2D R/B 2.3 03:42:04 10° N 03:47:09 55° WNW 03:50:52 18° SW
Cosmos 1707 Rocket 3.6 03:45:55 10° N 03:50:18 80° E 03:54:41 10° S
UNKNOWN OBJECT B 2.8 03:49:20 10° N 03:53:24 82° WNW 03:56:37 15° SSW
SL-16 R/B 3.1 03:52:25 14° SSW 03:57:15 37° W 04:02:58 10° NNW
ADEOS 4.0 03:53:05 10° N 03:58:04 47° WNW 04:02:03 16° SW
ADEOS II 3.7 03:53:56 10° NNE 03:58:40 33° E 04:03:22 10° SSE
MOS 1 Rocket 3.6 03:54:13 10° NNE 03:59:16 87° ESE 04:04:35 10° SSW
Cosmos 1980 4.2 03:57:32 10° NW 04:02:47 40° WSW 04:08:02 10° S
Cosmos 2297 Rocket 2.3 03:58:57 16° SW 04:03:31 66° WNW 04:09:10 10° NNE
SL-8 R/B 4.0 03:59:49 12° W 04:04:09 64° NNW 04:08:56 10° ENE
Cosmos 1666 Rocket 3.5 04:00:56 10° S 04:05:19 87° W 04:09:48 10° N
CZ-3A R/B 3.3 04:04:46 10° NNW 04:07:30 39° NE 04:15:22 10° ESE
ERBS 3.4 04:07:24 14° WSW 04:10:01 36° NW 04:13:11 10° NNE
Cosmos 2219 Rocket 3.4 04:06:02 10° NW 04:10:13 21° W 04:13:56 12° SW
ATLAS 3B CENTAUR R/B 3.8 04:05:59 10° WSW 04:14:14 24° SSW 04:18:27 10° SSE
Cosmos 1626 3.7 04:15:14 13° WSW 04:17:28 21° WNW 04:20:23 10° NNW
Cosmos 1356 4.5 04:15:42 14° SW 04:18:11 30° WNW 04:21:22 10° N
Cosmos 1850 Rocket 4.4 04:13:49 13° SW 04:18:21 48° WNW 04:23:24 10° N
Aureole 2 Rocket 4.0 04:15:57 10° NW 04:19:09 23° WSW 04:22:28 10° SSW
Okean O Rocket 2.7 04:15:18 10° NNE 04:19:28 43° E 04:23:36 10° S
SL-16 R/B 2.2 04:15:05 10° NNW 04:20:47 73° WSW 04:26:25 10° SSE
Cosmos 1741 Rocket 4.5 04:17:21 12° SW 04:22:06 48° WNW 04:27:17 10° N
GP-B 4.3 04:17:56 10° NNE 04:22:13 45° E 04:26:28 10° SSE
Cosmos 2237 Rocket 3.0 04:17:54 10° NW 04:22:42 29° WSW 04:27:29 10° SSW
Cosmos 1805 Rocket 4.3 04:18:53 11° SW 04:22:46 37° WNW 04:26:55 10° N
GPS 2-04 Rocket1 3.8 04:19:42 12° WSW 04:23:02 29° S 04:26:45 10° SE
CZ-4B R/B 4.3 04:18:14 10° NNE 04:23:16 42° E 04:28:18 10° S
CZ-4B R/B 3.8 04:22:13 10° NNE 04:26:39 56° E 04:30:54 10° S
CZ-3A R/B 4.3 04:22:02 10° SSW 04:28:33 30° SSE 04:59:37 10° ESE
ATLAS 2AS CENTAUR R/B 3.9 04:27:26 10° WNW 04:33:21 24° WSW 04:38:57 10° SSW
NOSS 3-4 (A) 4.0 04:27:27 10° NW 04:34:31 88° NE 04:42:03 10° SE
Cosmos 1400 Rocket 4.2 04:31:02 10° SSE 04:34:38 38° E 04:38:18 10° NNE
NOSS 3-4 (C) 4.0 04:27:34 10° NW 04:34:38 87° ENE 04:42:09 10° SE
ARIANE 5 R/B 4.1 04:35:44 10° NNW 04:39:25 20° WNW 04:43:03 10° WSW
Cosmos 2227 Rocket 3.4 04:36:00 10° WSW 04:40:50 28° NW 04:45:42 10° N
BREEZE-M DEB (TANK) 3.5 04:36:08 10° W 04:42:41 59° N 04:45:37 10° ENE
Cosmos 332 Rocket 3.9 04:37:58 10° NNW 04:42:49 85° ENE 04:47:40 10° SSE
ISS -3.8 04:40:11 10° WNW 04:43:25 56° SW 04:46:37 10° SE
Lacrosse 5 4.3 04:41:48 10° NW 04:45:04 17° N 04:48:19 10° NNE
USA 215 4.0 04:39:40 10° ENE 04:45:58 47° SE 04:52:12 10° SSW
